www.pogodaiklimat.ru

Погода и климат >> Архив погоды >> Норвегия >> Федье


ПОГОДА в Федье

  • Прогноз погоды в Федье
  • Монитор погоды в Федье

АРХИВ ПОГОДЫ в Федье

Время (UTC), дата Ветер
(напр.,м/с)
 
Видим.   Явления Облачность Т
(С)
Тd
(С)
f
(%)
Тe
(С)
Тes
(С)
Комфортность P
(гПа)
Po
(гПа)
Тmin
(С)
Tmax
(С)
R
(мм)
R24
(мм)
S
(см)
13 18.08 Ю 12
{20}
н/о н/о +14.3 +10.3 77 +11 +11 996.8 994.6
14 18.08 Ю 14
{18}
н/о н/о +16.6 +10.9 69 +14 +14 996.7 994.5
15 18.08 ЮВ 12
{17}
н/о н/о +16.4 +12.0 75 +14 +14 996.6 994.4
16 18.08 ЮВ 9
{16}
н/о н/о +14.8 +11.6 81 +12 +12 996.5 994.3
17 18.08 ЮВ 9
{14}
н/о н/о +15.5 +12.5 82 +13 +13 996.2 994.0
18 18.08 Ю 11
{20}
н/о н/о +15.8 +11.2 74 +14 +14 995.8 993.6 +13.1 +16.8
19 18.08 Ю 10
{14}
н/о н/о +15.4 +11.4 77 +13 +13 995.8 993.6
20 18.08 ЮВ 10
{12}
н/о н/о +14.8 +12.1 84 +12 +12 995.7 993.5
21 18.08 Ю 11
{14}
н/о н/о +14.9 +11.9 82 +12 +12 995.8 993.6
22 18.08 ЮВ 12
{15}
н/о н/о +14.8 +12.3 85 +12 +12 995.6 993.4
23 18.08 ЮВ 12
{18}
н/о н/о +14.4 +11.9 85 +11 +11 995.1 992.9
00 19.08 ЮВ 14
{18}
н/о н/о +14.3 +12.0 86 +11 +11 994.8 992.6
01 19.08 ЮВ 14
{18}
н/о н/о +14.4 +12.3 87 +11 +11 994.3 992.1
02 19.08 ЮВ 13
{18}
н/о н/о +14.2 +11.5 84 +11 +11 993.8 991.6
03 19.08 ЮВ 15
{18}
н/о н/о +13.8 +12.2 90 +10 +10 993.6 991.4
04 19.08 ЮВ 13
{20}
н/о н/о +13.8 +12.2 90 +10 +10 993.7 991.5
05 19.08 Ю 10
{15}
н/о н/о +14.7 +12.7 88 +12 +12 994.2 992.0
06 19.08 ЮЗ 10
{20}
н/о н/о +14.7 +12.4 86 +12 +12 994.5 992.3 +13.2 +15.8
07 19.08 ЮЗ 10
{13}
н/о н/о +14.9 +12.6 86 +12 +12 995.1 992.9
08 19.08 ЮЗ 11
{13}
н/о н/о +15.1 +12.8 86 +13 +13 995.8 993.6
09 19.08 ЮЗ 11
{13}
н/о н/о +15.1 +12.6 85 +13 +13 996.5 994.3
10 19.08 ЮЗ 10
{13}
н/о н/о +14.8 +12.1 84 +12 +12 997.2 995.0
11 19.08 ЮЗ 12
{14}
н/о н/о +15.0 +11.8 81 +12 +12 998.1 995.9
12 19.08 ЮЗ 11
{14}
н/о н/о +15.4 +12.4 82 +13 +13 999.1 996.9
13 19.08 ЮЗ 12
{15}
н/о н/о +15.8 +12.6 81 +13 +13 1000.0 997.8
14 19.08 ЮЗ 12
{14}
н/о н/о +15.3 +12.4 83 +13 +13 1000.7 998.5
15 19.08 ЮЗ 13
{15}
н/о н/о +15.4 +12.4 82 +13 +13 1001.3 999.1
16 19.08 ЮЗ 14
{17}
н/о н/о +15.0 +13.2 89 +12 +12 1001.6 999.4
17 19.08 ЮЗ 14
{17}
н/о н/о +15.1 +12.4 84 +12 +12 1001.9 999.7
18 19.08 ЮЗ 14
{18}
н/о н/о +15.2 +12.3 83 +12 +12 1002.5 1000.3 +14.5 +15.9
19 19.08 ЮЗ 13
{17}
н/о н/о +15.1 +12.2 83 +12 +12 1003.0 1000.8
20 19.08 ЮЗ 14
{18}
н/о н/о +14.8 +12.5 86 +12 +12 1003.5 1001.3
21 19.08 ЮЗ 12
{17}
н/о н/о +14.0 +12.9 93 +11 +11 1004.1 1001.8
22 19.08 ЮЗ 11
{17}
н/о н/о +13.8 +12.4 91 +11 +11 1004.4 1002.1
23 19.08 ЮЗ 11
{16}
н/о н/о +14.2 +12.4 89 +11 +11 1004.6 1002.3
00 20.08 ЮЗ 9
{18}
н/о н/о +13.4 +12.1 92 +10 +10 1005.0 1002.7
01 20.08 ЮЗ 10
{12}
н/о н/о +13.9 +12.1 89 +11 +11 1005.2 1002.9
02 20.08 ЮЗ 9
{13}
н/о н/о +14.5 +11.7 83 +12 +12 1005.4 1003.1
03 20.08 ЮЗ 8
{12}
н/о н/о +14.5 +12.2 86 +12 +12 1005.5 1003.2
04 20.08 ЮЗ 9
{12}
н/о н/о +14.4 +11.2 81 +12 +12 1005.9 1003.6
05 20.08 ЮЗ 8
{15}
н/о н/о +13.5 +12.4 93 +11 +11 1006.2 1003.9
06 20.08 ЮЗ 7
{15}
н/о н/о +13.8 +11.7 87 +11 +11 1006.7 1004.4 +13.2 +15.2
07 20.08 З 6
{10}
н/о н/о +12.9 +11.1 89 +10 +10 1007.4 1005.1
08 20.08 З 5
{6}
н/о н/о +13.9 +11.8 87 +12 +12 1008.2 1005.9
09 20.08 З 4
{9}
н/о н/о +13.9 +12.0 88 +12 +12 1009.0 1006.7
10 20.08 З 6
{8}
н/о н/о +13.5 +11.2 86 +11 +11 1009.7 1007.4
11 20.08 З 5
{8}
н/о н/о +14.2 +11.0 81 +12 +12 1010.6 1008.3
12 20.08 З 5
{10}
н/о н/о +14.2 +10.6 79 +13 +13 1011.6 1009.3
13 20.08 З 6
{10}
н/о н/о +14.4 +9.6 73 +13 +13 1012.5 1010.2
14 20.08 ЮЗ 7
{10}
н/о н/о +14.3 +8.9 70 +12 +12 1013.2 1010.9
15 20.08 З 6
{12}
н/о н/о +14.2 +10.0 76 +12 +12 1013.8 1011.5
16 20.08 З 5
{9}
н/о н/о +13.9 +9.9 77 +12 +12 1014.5 1012.2
17 20.08 З 3
{8}
н/о н/о +12.7 +10.8 88 +11 +11 1015.2 1012.9
18 20.08 З 8
{12}
н/о н/о +13.4 +9.7 78 +11 +11 1015.5 1013.2 +12.6 +14.6
19 20.08 З 8
{10}
н/о н/о +13.2 +9.3 77 +10 +10 1016.2 1013.9
20 20.08 З 6
{9}
н/о н/о +13.1 +9.4 78 +11 +11 1017.2 1014.9
21 20.08 З 6
{9}
н/о н/о +12.8 +8.1 73 +10 +10 1017.8 1015.5
22 20.08 З 7
{10}
н/о н/о +12.5 +9.2 80 +10 +10 1018.2 1015.9
23 20.08 З 6
{10}
н/о н/о +12.7 +7.8 72 +10 +10 1018.7 1016.4
00 21.08 З 7
{10}
н/о н/о +12.4 +8.3 76 +10 +10 1019.0 1016.7
01 21.08 З 5
{10}
н/о н/о +12.5 +7.8 73 +10 +10 1019.6 1017.3
02 21.08 З 6
{8}
н/о н/о +12.4 +7.9 74 +10 +10 1019.9 1017.6
03 21.08 З 6
{9}
н/о н/о +12.5 +7.0 69 +10 +10 1020.2 1017.9
04 21.08 З 3
{7}
н/о н/о +12.8 +6.2 64 +12 +12 1020.6 1018.3
05 21.08 З 5
{7}
н/о н/о +12.7 +6.8 67 +11 +11 1020.9 1018.6
06 21.08 З 4
{10}
н/о н/о +12.8 +6.2 64 +11 +11 1021.3 1019.0 +12.0 +13.5
07 21.08 З 3
{5}
н/о н/о +12.9 +6.0 63 +12 +12 1021.7 1019.4
08 21.08 З 3
{5}
н/о н/о +13.2 +6.1 62 +12 +12 1022.2 1019.9
09 21.08 ЮЗ 2
{4}
н/о н/о +13.5 +6.4 62 +13 +13 1022.5 1020.2
10 21.08 Ю 2
{4}
н/о н/о +15.0 +7.3 60 +15 +15 1022.4 1020.1
11 21.08 ЮВ 4
{5}
н/о н/о +14.2 +7.7 65 +13 +13 1022.5 1020.2
12 21.08 ЮЗ 5
{6}
н/о н/о +14.7 +7.8 63 +13 +13 1022.6 1020.3
13 21.08 Ю 7
{9}
н/о н/о +14.8 +7.1 60 +13 +13 1022.5 1020.2
14 21.08 Ю 7
{9}
н/о н/о +15.1 +7.2 59 +13 +13 1022.4 1020.1
15 21.08 Ю 7
{9}
н/о н/о +15.3 +7.1 58 +14 +14 1022.1 1019.8
16 21.08 Ю 8
{10}
н/о н/о +15.3 +8.8 65 +13 +13 1021.8 1019.5
17 21.08 Ю 8
{11}
н/о н/о +15.0 +7.8 62 +13 +13 1021.7 1019.4
18 21.08 Ю 8
{11}
н/о н/о +14.6 +7.7 63 +12 +12 1021.2 1018.9 +12.7 +15.5
19 21.08 Ю 8
{11}
н/о н/о +14.6 +8.3 66 +12 +12 1020.6 1018.3
20 21.08 ЮВ 9
{11}
н/о н/о +14.2 +8.8 70 +12 +12 1020.2 1017.9
21 21.08 ЮВ 9
{11}
н/о н/о +14.4 +10.2 76 +12 +12 1020.0 1017.7
22 21.08 ЮВ 9
{11}
н/о н/о +13.7 +10.3 80 +11 +11 1019.4 1017.1
23 21.08 ЮВ 10
{13}
н/о н/о +13.8 +9.9 77 +11 +11 1018.7 1016.4
00 22.08 ЮВ 10
{13}
н/о н/о +13.9 +9.6 75 +11 +11 1017.9 1015.6
01 22.08 ЮВ 11
{12}
н/о н/о +14.1 +9.7 75 +11 +11 1017.1 1014.8
02 22.08 ЮВ 13
{16}
н/о н/о +13.7 +10.7 82 +10 +10 1016.1 1013.8
03 22.08 ЮВ 12
{17}
н/о н/о +13.2 +10.4 83 +10 +10 1014.9 1012.6
04 22.08 ЮВ 12
{15}
н/о н/о +13.3 +11.7 90 +10 +10 1014.7 1012.4
05 22.08 ЮВ 11
{15}
н/о н/о +13.3 +12.2 93 +10 +10 1014.0 1011.7
06 22.08 ЮВ 13
{17}
н/о н/о +13.4 +12.1 92 +10 +10 1013.0 1010.7 +13.0 +14.7
07 22.08 ЮВ 14
{17}
н/о н/о +13.6 +12.3 92 +10 +10 1012.1 1009.8
08 22.08 ЮВ 14
{18}
н/о н/о +13.5 +12.7 95 +10 +10 1011.3 1009.0
09 22.08 Ю 11
{18}
н/о н/о +14.3 +13.0 92 +11 +11 1011.6 1009.3
10 22.08 Ю 10
{13}
н/о н/о +15.3 +12.6 84 +13 +13 1011.9 1009.6
11 22.08 ЮЗ 9
{12}
н/о н/о +15.6 +12.5 82 +14 +14 1012.2 1009.9
12 22.08 ЮЗ 9
{18}
н/о н/о +15.2 +12.2 82 +13 +13 1012.6 1010.3
13 22.08 ЮЗ 9
{11}
н/о н/о +15.5 +12.5 82 +13 +13 1013.0 1010.7
14 22.08 ЮЗ 9
{11}
н/о н/о +15.5 +12.1 80 +13 +13 1013.2 1010.9
15 22.08 ЮЗ 9
{11}
н/о н/о +15.2 +10.8 75 +13 +13 1013.5 1011.2
16 22.08 Ю 10
{12}
н/о н/о +15.1 +11.1 77 +13 +13 1013.4 1011.1
17 22.08 Ю 10
{12}
н/о н/о +15.1 +11.3 78 +13 +13 1013.1 1010.8
18 22.08 Ю 11
{13}
н/о н/о +15.2 +10.8 75 +13 +13 1012.8 1010.5 +13.3 +16.0
19 22.08 Ю 11
{15}
н/о н/о +15.2 +11.0 76 +13 +13 1012.4 1010.1
20 22.08 ЮЗ 10
{19}
н/о н/о +13.0 +10.0 82 +10 +10 1012.4 1010.1
21 22.08 Ю 13
{17}
н/о н/о +15.4 +12.7 84 +13 +13 1011.5 1009.2
22 22.08 Ю 12
{15}
н/о н/о +15.3 +12.1 81 +13 +13 1010.4 1008.1
23 22.08 Ю 12
{18}
н/о н/о +15.5 +12.5 82 +13 +13 1009.6 1007.3
00 23.08 Ю 12
{19}
н/о н/о +14.6 +13.0 90 +12 +12 1009.2 1006.9
01 23.08 ЮЗ 13
{17}
н/о н/о +15.5 +13.7 89 +13 +13 1009.4 1007.1
02 23.08 ЮЗ 11
{14}
н/о н/о +15.3 +13.2 87 +13 +13 1009.8 1007.5
03 23.08 ЮЗ 9
{14}
н/о н/о +14.6 +11.6 82 +12 +12 1010.2 1007.9
04 23.08 ЮЗ 10
{14}
н/о н/о +14.2 +12.1 87 +11 +11 1010.8 1008.5
05 23.08 ЮЗ 10
{15}
н/о н/о +13.4 +12.3 93 +10 +10 1011.6 1009.3
06 23.08 ЮЗ 12
{17}
н/о н/о +13.8 +11.9 88 +10 +10 1012.3 1010.0 +12.8 +15.7
07 23.08 ЮЗ 13
{16}
н/о н/о +14.3 +12.0 86 +11 +11 1013.0 1010.7
08 23.08 ЮЗ 12
{18}
н/о н/о +14.4 +11.2 81 +11 +11 1013.9 1011.6
09 23.08 ЮЗ 13
{16}
н/о н/о +14.8 +11.6 81 +12 +12 1014.7 1012.4
10 23.08 ЮЗ 12
{15}
н/о н/о +14.9 +11.5 80 +12 +12 1015.4 1013.1
11 23.08 ЮЗ 11
{14}
н/о н/о +14.8 +10.8 77 +12 +12 1016.3 1014.0
12 23.08 ЮЗ 10
{18}
н/о н/о +15.1 +11.1 77 +13 +13 1017.3 1015.0
13 23.08 ЮЗ 9
{14}
н/о н/о +15.4 +10.6 73 +13 +13 1017.8 1015.5
14 23.08 ЮЗ 9
{12}
н/о н/о +15.5 +11.9 79 +13 +13 1018.4 1016.1
15 23.08 ЮЗ 7
{10}
н/о н/о +15.3 +12.4 83 +13 +13 1018.7 1016.4
16 23.08 Ю 9
{11}
н/о н/о +14.9 +12.4 85 +13 +13 1019.0 1016.7
17 23.08 Ю 5
{10}
н/о н/о +13.6 +11.5 87 +12 +12 1019.1 1016.8
18 23.08 ЮВ 6
{14}
н/о н/о +14.0 +13.2 95 +12 +12 1019.2 1016.9 +13.1 +15.6
19 23.08 ЮВ 6
{8}
н/о н/о +13.8 +13.3 97 +12 +12 1019.4 1017.1
20 23.08 Ю 6
{8}
н/о н/о +14.9 +14.6 98 +13 +13 1019.9 1017.6
21 23.08 ЮЗ 7
{9}
н/о н/о +15.0 +14.4 96 +13 +13 1020.1 1017.8
22 23.08 ЮЗ 7
{10}
н/о н/о +15.1 +14.3 95 +13 +13 1020.5 1018.2
23 23.08 ЮЗ 7
{9}
н/о н/о +15.2 +14.2 94 +13 +13 1021.2 1018.9
00 24.08 ЮЗ 6
{10}
н/о н/о +15.2 +14.2 94 +14 +14 1021.5 1019.2
01 24.08 Ю 5
{7}
н/о н/о +15.3 +14.5 95 +14 +14 1021.9 1019.6
02 24.08 ЮВ 6
{7}
н/о н/о +15.0 +14.5 97 +13 +13 1021.8 1019.5
03 24.08 ЮВ 5
{7}
н/о н/о +15.0 +14.5 97 +13 +13 1021.9 1019.6
04 24.08 ЮВ 6
{8}
н/о н/о +15.3 +14.7 96 +14 +14 1021.8 1019.5
05 24.08 Ю 8
{10}
н/о н/о +15.7 +14.6 93 +14 +14 1021.8 1019.5
06 24.08 ЮВ 9
{12}
н/о н/о +15.6 +14.1 91 +14 +14 1021.6 1019.3 +13.8 +15.7
07 24.08 ЮВ 8
{11}
н/о н/о +15.5 +14.5 94 +14 +14 1021.8 1019.5
08 24.08 ЮВ 9
{11}
н/о н/о +15.9 +14.3 90 +14 +14 1021.9 1019.6
09 24.08 ЮВ 8
{11}
н/о н/о +16.1 +14.3 89 +14 +14 1021.7 1019.4
10 24.08 ЮВ 8
{11}
н/о н/о +17.2 +14.7 85 +16 +16 1021.4 1019.1
11 24.08 Ю 10
{14}
н/о н/о +17.7 +14.6 82 +16 +16 1021.4 1019.1
12 24.08 Ю 13
{17}
н/о н/о +17.9 +14.6 81 +16 +16 1021.4 1019.1
13 24.08 Ю 13
{17}
н/о н/о +17.5 +14.8 84 +16 +16 1021.6 1019.3
14 24.08 Ю 13
{18}
н/о н/о +17.3 +14.8 85 +15 +15 1021.5 1019.2
15 24.08 Ю 14
{19}
н/о н/о +17.3 +15.1 87 +15 +15 1021.6 1019.3
16 24.08 Ю 14
{19}
н/о н/о +17.2 +15.0 87 +15 +15 1021.3 1019.0
17 24.08 Ю 13
{16}
н/о н/о +17.0 +15.2 89 +15 +15 1020.9 1018.6
18 24.08 Ю 13
{19}
н/о н/о +17.0 +15.2 89 +15 +15 1020.9 1018.6 +15.4 +18.0
19 24.08 Ю 11
{16}
н/о н/о +17.1 +15.1 88 +15 +15 1021.2 1018.9
20 24.08 Ю 12
{16}
н/о н/о +17.2 +15.0 87 +15 +15 1021.2 1018.9
21 24.08 Ю 12
{15}
н/о н/о +17.2 +14.7 85 +15 +15 1021.0 1018.7
22 24.08 Ю 12
{15}
н/о н/о +17.1 +14.4 84 +15 +15 1020.8 1018.5
23 24.08 Ю 11
{15}
н/о н/о +17.0 +14.6 86 +15 +15 1021.1 1018.8
00 25.08 Ю 11
{16}
н/о н/о +16.8 +14.8 88 +15 +15 1021.0 1018.7
01 25.08 Ю 11
{14}
н/о н/о +16.8 +14.8 88 +15 +15 1021.0 1018.7
02 25.08 Ю 12
{15}
н/о н/о +16.5 +15.4 93 +14 +14 1021.2 1018.9
03 25.08 Ю 10
{13}
н/о н/о +16.5 +15.4 93 +15 +15 1021.3 1019.0
04 25.08 Ю 11
{14}
н/о н/о +16.6 +15.1 91 +15 +15 1021.0 1018.7
05 25.08 Ю 10
{15}
н/о н/о +16.6 +15.0 90 +15 +15 1021.2 1018.9
06 25.08 Ю 9
{15}
н/о н/о +16.7 +15.1 90 +15 +15 1021.5 1019.2 +16.4 +17.3
07 25.08 Ю 8
{11}
н/о н/о +16.7 +15.4 92 +15 +15 1021.4 1019.1
08 25.08 Ю 9
{12}
н/о н/о +17.0 +14.8 87 +16 +16 1021.4 1019.1
09 25.08 Ю 8
{11}
н/о н/о +17.3 +14.8 85 +16 +16 1021.3 1019.0
10 25.08 Ю 9
{12}
н/о н/о +18.1 +15.0 82 +17 +17 1021.6 1019.3
11 25.08 Ю 9
{11}
н/о н/о +17.8 +15.3 85 +17 +17 1022.0 1019.7
12 25.08 Ю 8
{12}
н/о н/о +17.7 +15.7 88 +17 +17 1021.9 1019.6
13 25.08 Ю 9
{11}
н/о н/о +17.8 +15.8 88 +17 +17 1021.9 1019.6

 

Местоположение метеостанции Федье (Норвегия): широта 60.78 долгота 4.72 высота над уровнем моря 19 м.

В архиве по умолчанию представлена погода в Федье за последнюю неделю. Архивные данные за месяц целиком и за предыдущие месяцы, начиная с января 2011 года, Вы можете получить, выбрав интересующий диапазон дат из раскрывающегося списка и нажав кнопку "Ввод!".


*Определитесь, кто Вы:
робот инопланетянин человек

Внимание! Время в таблицах - всемирное. Для получения местного времени необходимо прибавить поправку, которая равна 1 ч.

Смотрите также архив погоды в соседних городах и на ближайших метеорологических станциях:

Погода в Такле (Норвегия) (45 км)
Погода в Бергене (Норвегия) (56 км)
Погода в Фурунесете (Норвегия) (59 км)
Погода в Фоссмарке (Норвегия) (62 км)
Погода в Модалене (Норвегия) (68 км)
Погода в Эванжере (Норвегия) (77 км)
Погода в Квамскогене (Норвегия) (82 км)
Погода в Булкене (Норвегия) (83 км)
Погода на Маяке Ytteroyane (Норвегия) (88 км)
Погода во Флурё аэропорту (Норвегия) (88 км)

Пояснения к столбцам:

Ветер - указаны скорость ветра в м/с - средняя за 10 мин, порывы в срок и между сроками (в фигурных скобках) и направление, откуда дует ветер: С - северный, СВ - северо-восточный, В - восточный, ЮВ - юго-восточный, Ю - южный, ЮЗ - юго-западный, З - западный, СЗ - северо-западный.
Видимость - горизонтальная дальность видимости в метрах или километрах. При видимости от 1 до 10 км при отсутствии осадков обычно наблюдается дымка, при ухудшении видимости до 1 км и менее - туман. В сухую погоду видимость может ухудшаться дымом, пылью или мглою.
Явления - указаны атмосферные явления, наблюдавшиеся в срок или в последний час перед сроком; фигурными скобками обозначены явления, наблюдавшиеся между сроками (за 1-3 часа до срока); квадратными скобками обозначены град или гололедные отложения с указанием их диаметра в мм.
Облачность - указаны через наклонную черту общая и нижняя облачность в баллах и высота нижней границы облаков в метрах; квадратными скобками обозначены формы облаков: Ci - перистые, Cs - перисто-слоистые, Cc - перисто-кучевые, Ac - высококучевые, As - высокослоистые, Sc - слоисто-кучевые, Ns - слоисто-дождевые, Cu - кучевые, Cb - кучево-дождевые. Подробнее классификацию облаков см. в Атласе облаков (PDF).
T - Температура воздуха - температура, измеренная на высоте 2 м над землей.
Td - Температура точки росы - температура, при понижении до которой содержащийся в воздухе водяной пар достигнет насыщения.
f - Относительная влажность воздуха - влажноcть воздуха, измеренная на высоте 2 м над землей.
Te - Эффективная температура - температура, которую ощущает одетый по сезону человек в тени. Характеристика душности погоды. При расчете учитывается влияние влажности воздуха и скорости ветра на теплоощущения человека.
Tes - Эффективная температура на солнце - температура, которую ощущает человек, с поправкой на солнечный нагрев. Характеристика знойности погоды. Зависит от высоты солнца над горизонтом, облачности и скорости ветра. Ночью, в пасмурную погоду, а также при ветре 12 м/с и более поправка равна нулю.
P - Атмосферное давление - приведенное к уровню моря атмосферное давление.
Po - Атмосферное давление - измеренное на уровне метеостанции атмосферное давление.
Tmin - Минимальная температура - минимум температуры воздуха на высоте 2 м над землей.
Tmax - Максимальная температура - максимум температуры воздуха на высоте 2 м над землей.
R - Количество осадков - Количество выпавших осадков за период времени, мм. При наведении курсора мыши на число - период времени, за который выпало указанное количество осадков.
R24 - Количество осадков - Количество выпавших осадков за 24 часа, мм.
S - Снежный покров - Высота снежного покрова, см. При наведении курсора мыши на число - состояние снежного покрова и степень покрытия местности в баллах.